QPF
0.00 0.00 0.00 0.00 0.00 0.01 0.01 0.02 0.03 0.05 0.04 0.04 0.02 0.01 0.01 0.01 0.01 0.05 0.08 0.05 0.04 0.03 0.01 0.00 0.00 0.00 0.00 0.00 0.00 0.00 0.00 0.00 0.00 0.00 0.01 0.02 0.03 0.03 0.04 0.03 0.05 0.06 0.08 0.10 0.10 0.11 0.15 0.14 0.13
0.00 0.00 0.00 0.01 0.01 0.01 0.03 0.03 0.03 0.03 0.03 0.06 0.02 0.01 0.01 0.02 0.02 0.05 0.12 0.04 0.03 0.03 0.01 0.00 0.00 0.00 0.00 0.00 0.00 0.00 0.01 0.01 0.00 0.00 0.01 0.01 0.02 0.03 0.03 0.04 0.06 0.06 0.06 0.06 0.08 0.09 0.11 0.09 0.08
0.00 0.00 0.01 0.01 0.01 0.01 0.02 0.01 0.01 0.02 0.02 0.03 0.02 0.02 0.02 0.02 0.04 0.08 0.10 0.03 0.03 0.04 0.02 0.00 0.00 0.00 0.00 0.00 0.00 0.00 0.01 0.01 0.01 0.00 0.00 0.01 0.01 0.02 0.03 0.04 0.05 0.05 0.06 0.06 0.05 0.05 0.06 0.07 0.06
0.00 0.00 0.02 0.03 0.01 0.02 0.01 0.01 0.01 0.06 0.06 0.02 0.02 0.04 0.02 0.01 0.04 0.05 0.04 0.02 0.03 0.03 0.02 0.02 0.00 0.00 0.00 0.00 0.00 0.00 0.01 0.01 0.01 0.01 0.00 0.01 0.01 0.01 0.02 0.03 0.04 0.04 0.04 0.04 0.06 0.05 0.05 0.06 0.05
0.00 0.00 0.01 0.03 0.04 0.02 0.01 0.01 0.01 0.04 0.04 0.04 0.02 0.02 0.02 0.03 0.02 0.02 0.02 0.02 0.02 0.02 0.03 0.03 0.01 0.00 0.01 0.01 0.00 0.00 0.00 0.01 0.01 0.01 0.01 0.01 0.01 0.01 0.02 0.02 0.03 0.03 0.03 0.03 0.04 0.02 0.03 0.03 0.03
0.00 0.00 0.01 0.02 0.03 0.01 0.01 0.01 0.01 0.01 0.03 0.04 0.02 0.02 0.03 0.03 0.02 0.02 0.02 0.02 0.02 0.01 0.02 0.01 0.00 0.00 0.00 0.01 0.00 0.01 0.01 0.01 0.01 0.02 0.02 0.02 0.02 0.02 0.02 0.02 0.03 0.03 0.04 0.04 0.03 0.03 0.04 0.04 0.04
0.00 0.00 0.01 0.02 0.01 0.01 0.00 0.01 0.01 0.02 0.03 0.02 0.02 0.03 0.04 0.03 0.03 0.03 0.02 0.02 0.02 0.01 0.01 0.00 0.00 0.00 0.00 0.01 0.00 0.00 0.01 0.01 0.01 0.02 0.02 0.02 0.02 0.02 0.02 0.02 0.03 0.04 0.04 0.03 0.02 0.02 0.03 0.04 0.04
0.00 0.00 0.01 0.03 0.01 0.00 0.01 0.00 0.01 0.01 0.02 0.01 0.02 0.03 0.04 0.03 0.03 0.02 0.02 0.02 0.01 0.01 0.01 0.00 0.00 0.00 0.01 0.01 0.00 0.00 0.00 0.01 0.01 0.01 0.02 0.02 0.02 0.02 0.02 0.02 0.03 0.04 0.04 0.03 0.03 0.04 0.04 0.03 0.04
0.00 0.01 0.01 0.01 0.00 0.00 0.00 0.00 0.00 0.01 0.01 0.01 0.02 0.02 0.04 0.03 0.03 0.03 0.03 0.02 0.02 0.01 0.02 0.01 0.00 0.00 0.01 0.00 0.00 0.00 0.00 0.01 0.01 0.01 0.02 0.02 0.02 0.03 0.02 0.01 0.03 0.03 0.04 0.05 0.04 0.05 0.05 0.05 0.06
0.00 0.01 0.02 0.01 0.00 0.00 0.00 0.00 0.00 0.00 0.00 0.01 0.01 0.01 0.01 0.02 0.02 0.03 0.03 0.02 0.02 0.02 0.02 0.01 0.01 0.01 0.00 0.00 0.00 0.00 0.00 0.01 0.01 0.01 0.01 0.02 0.02 0.02 0.03 0.02 0.04 0.04 0.04 0.05 0.05 0.04 0.04 0.05 0.03
0.01 0.02 0.01 0.00 0.00 0.00 0.01 0.01 0.00 0.00 0.00 0.01 0.01 0.01 0.01 0.01 0.01 0.01 0.02 0.03 0.03 0.02 0.01 0.01 0.01 0.01 0.02 0.01 0.01 0.01 0.01 0.01 0.01 0.01 0.02 0.02 0.02 0.02 0.02 0.03 0.05 0.06 0.06 0.05 0.05 0.04 0.04 0.03 0.02
0.01 0.00 0.00 0.00 0.00 0.00 0.00 0.00 0.00 0.00 0.00 0.01 0.01 0.01 0.03 0.02 0.01 0.01 0.02 0.03 0.03 0.02 0.01 0.01 0.02 0.02 0.03 0.03 0.03 0.02 0.02 0.02 0.03 0.02 0.03 0.03 0.03 0.02 0.03 0.08 0.12 0.11 0.08 0.06 0.06 0.04 0.03 0.03 0.03
0.00 0.00 0.00 0.00 0.00 0.00 0.00 0.00 0.00 0.00 0.00 0.00 0.01 0.01 0.02 0.02 0.01 0.02 0.03 0.03 0.03 0.02 0.01 0.01 0.01 0.02 0.02 0.03 0.05 0.03 0.03 0.05 0.06 0.06 0.06 0.05 0.04 0.05 0.07 0.14 0.16 0.13 0.09 0.07 0.07 0.05 0.03 0.03 0.05
0.00 0.00 0.00 0.00 0.00 0.00 0.00 0.00 0.00 0.00 0.00 0.00 0.01 0.01 0.02 0.02 0.02 0.02 0.03 0.05 0.04 0.02 0.02 0.01 0.02 0.03 0.02 0.02 0.02 0.03 0.05 0.08 0.09 0.09 0.11 0.11 0.09 0.07 0.07 0.08 0.09 0.10 0.08 0.06 0.06 0.05 0.03 0.03 0.04
0.00 0.00 0.00 0.00 0.01 0.00 0.00 0.01 0.01 0.01 0.00 0.01 0.01 0.01 0.01 0.01 0.02 0.02 0.03 0.06 0.06 0.03 0.03 0.02 0.02 0.04 0.04 0.03 0.03 0.03 0.05 0.07 0.08 0.09 0.09 0.12 0.14 0.12 0.08 0.07 0.07 0.08 0.07 0.06 0.06 0.05 0.05 0.04 0.04
0.00 0.01 0.01 0.01 0.01 0.01 0.01 0.01 0.01 0.01 0.01 0.01 0.01 0.02 0.02 0.02 0.03 0.03 0.05 0.10 0.08 0.05 0.04 0.04 0.04 0.05 0.05 0.04 0.03 0.05 0.05 0.06 0.09 0.11 0.09 0.08 0.08 0.09 0.08 0.07 0.08 0.09 0.08 0.07 0.08 0.06 0.04 0.05 0.04
0.01 0.02 0.04 0.01 0.01 0.01 0.00 0.00 0.01 0.01 0.01 0.01 0.01 0.02 0.03 0.04 0.06 0.07 0.09 0.09 0.11 0.09 0.07 0.06 0.05 0.06 0.06 0.04 0.03 0.03 0.04 0.05 0.09 0.12 0.11 0.11 0.10 0.08 0.06 0.06 0.06 0.07 0.08 0.10 0.11 0.08 0.05 0.04 0.04
0.01 0.01 0.03 0.01 0.00 0.01 0.01 0.01 0.01 0.01 0.02 0.02 0.03 0.04 0.04 0.05 0.07 0.07 0.07 0.06 0.06 0.06 0.07 0.09 0.09 0.07 0.06 0.05 0.04 0.03 0.03 0.03 0.03 0.04 0.05 0.05 0.06 0.08 0.07 0.06 0.06 0.07 0.08 0.10 0.10 0.10 0.07 0.05 0.05
0.01 0.01 0.01 0.01 0.01 0.01 0.01 0.01 0.01 0.01 0.02 0.03 0.07 0.05 0.04 0.04 0.05 0.07 0.06 0.05 0.08 0.09 0.05 0.04 0.04 0.05 0.04 0.03 0.03 0.02 0.02 0.05 0.09 0.08 0.06 0.04 0.04 0.04 0.05 0.07 0.06 0.07 0.07 0.07 0.08 0.08 0.08 0.07 0.06
0.00 0.00 0.00 0.00 0.01 0.01 0.01 0.01 0.03 0.03 0.03 0.04 0.05 0.05 0.05 0.04 0.04 0.04 0.04 0.05 0.04 0.04 0.03 0.02 0.01 0.02 0.03 0.03 0.03 0.02 0.02 0.03 0.05 0.06 0.04 0.03 0.03 0.03 0.04 0.06 0.06 0.06 0.06 0.06 0.09 0.08 0.07 0.06 0.05
0.00 0.00 0.00 0.00 0.00 0.01 0.02 0.03 0.04 0.04 0.04 0.04 0.03 0.04 0.04 0.03 0.03 0.03 0.03 0.04 0.03 0.02 0.01 0.01 0.01 0.01 0.02 0.03 0.03 0.02 0.03 0.03 0.03 0.05 0.05 0.03 0.03 0.03 0.04 0.06 0.06 0.06 0.06 0.05 0.07 0.08 0.07 0.06 0.07
0.00 0.00 0.00 0.00 0.00 0.01 0.03 0.06 0.05 0.05 0.04 0.04 0.04 0.04 0.05 0.04 0.04 0.03 0.04 0.05 0.04 0.03 0.02 0.01 0.01 0.01 0.01 0.02 0.02 0.03 0.03 0.03 0.04 0.05 0.06 0.05 0.05 0.04 0.04 0.05 0.05 0.04 0.04 0.05 0.05 0.06 0.07 0.06 0.08
0.00 0.00 0.00 0.00 0.00 0.00 0.01 0.03 0.04 0.04 0.05 0.06 0.04 0.03 0.04 0.05 0.05 0.04 0.07 0.08 0.06 0.05 0.03 0.02 0.02 0.01 0.02 0.02 0.01 0.02 0.02 0.03 0.04 0.05 0.06 0.07 0.06 0.05 0.05 0.05 0.04 0.03 0.03 0.05 0.05 0.03 0.03 0.03 0.03
0.00 0.00 0.00 0.00 0.00 0.01 0.01 0.02 0.04 0.05 0.05 0.05 0.04 0.04 0.05 0.04 0.04 0.05 0.08 0.10 0.08 0.05 0.03 0.03 0.03 0.02 0.02 0.02 0.01 0.01 0.02 0.03 0.04 0.05 0.07 0.08 0.06 0.06 0.06 0.04 0.02 0.03 0.04 0.06 0.06 0.04 0.04 0.03 0.02
0.00 0.00 0.01 0.00 0.01 0.01 0.01 0.02 0.05 0.04 0.04 0.04 0.08 0.13 0.09 0.06 0.05 0.06 0.07 0.08 0.08 0.07 0.06 0.04 0.04 0.04 0.03 0.02 0.01 0.02 0.03 0.03 0.03 0.04 0.06 0.05 0.05 0.04 0.04 0.04 0.04 0.05 0.06 0.06 0.06 0.05 0.05 0.05 0.04
0.00 0.00 0.01 0.02 0.02 0.02 0.02 0.03 0.04 0.04 0.06 0.05 0.06 0.09 0.08 0.07 0.06 0.05 0.07 0.08 0.10 0.09 0.10 0.07 0.06 0.05 0.04 0.03 0.03 0.03 0.04 0.04 0.05 0.05 0.04 0.04 0.04 0.04 0.05 0.06 0.06 0.06 0.06 0.05 0.04 0.04 0.04 0.05 0.05
0.01 0.01 0.01 0.02 0.02 0.03 0.03 0.03 0.04 0.04 0.08 0.06 0.04 0.05 0.06 0.10 0.11 0.07 0.05 0.06 0.09 0.11 0.10 0.07 0.07 0.05 0.05 0.04 0.03 0.02 0.03 0.06 0.06 0.05 0.04 0.04 0.03 0.03 0.05 0.07 0.07 0.06 0.07 0.07 0.05 0.05 0.04 0.04 0.04
0.00 0.00 0.00 0.01 0.02 0.02 0.02 0.03 0.06 0.08 0.08 0.06 0.06 0.06 0.07 0.07 0.11 0.15 0.12 0.05 0.07 0.10 0.10 0.07 0.06 0.04 0.04 0.04 0.03 0.02 0.01 0.03 0.04 0.04 0.05 0.05 0.04 0.03 0.04 0.06 0.07 0.07 0.07 0.06 0.05 0.05 0.04 0.04 0.03
0.00 0.00 0.01 0.01 0.01 0.02 0.03 0.04 0.05 0.05 0.06 0.08 0.07 0.07 0.06 0.06 0.05 0.08 0.16 0.11 0.07 0.10 0.13 0.10 0.07 0.05 0.03 0.03 0.03 0.02 0.02 0.02 0.02 0.04 0.05 0.05 0.05 0.05 0.04 0.04 0.05 0.06 0.05 0.05 0.04 0.04 0.05 0.04 0.04
0.01 0.01 0.01 0.02 0.03 0.02 0.03 0.05 0.06 0.05 0.06 0.08 0.07 0.06 0.05 0.03 0.03 0.04 0.09 0.17 0.13 0.09 0.10 0.11 0.09 0.06 0.03 0.02 0.02 0.02 0.02 0.02 0.03 0.03 0.04 0.05 0.05 0.06 0.06 0.05 0.04 0.04 0.04 0.05 0.04 0.03 0.04 0.06 0.07
MSLP
1005.45 1006.33 1007.41 1008.48 1009.36 1009.91 1010.07 1009.88 1009.46 1008.97 1008.56 1008.37 1008.43 1008.71 1009.11 1009.48 1009.70 1009.68 1009.38 1008.85 1008.21 1007.56 1007.03 1006.70 1006.58 1006.63 1006.76 1006.90 1006.95 1006.88 1006.71 1006.46 1006.21 1006.01 1005.91 1005.90 1005.95 1006.01 1006.04 1005.99 1005.88 1005.75 1005.68 1005.75 1006.03 1006.54 1007.28 1008.19 1009.19
1005.96 1007.04 1008.19 1009.22 1009.94 1010.25 1010.13 1009.66 1008.97 1008.26 1007.70 1007.40 1007.39 1007.63 1008.00 1008.37 1008.61 1008.63 1008.40 1007.99 1007.48 1006.99 1006.61 1006.41 1006.40 1006.52 1006.69 1006.83 1006.88 1006.81 1006.64 1006.41 1006.18 1006.02 1005.95 1005.95 1006.01 1006.06 1006.05 1005.98 1005.85 1005.71 1005.64 1005.71 1006.00 1006.53 1007.28 1008.21 1009.23
1006.66 1007.87 1009.04 1009.98 1010.51 1010.57 1010.17 1009.43 1008.52 1007.62 1006.92 1006.52 1006.43 1006.61 1006.94 1007.28 1007.51 1007.55 1007.39 1007.08 1006.71 1006.38 1006.17 1006.12 1006.22 1006.41 1006.63 1006.79 1006.84 1006.78 1006.61 1006.40 1006.21 1006.07 1006.01 1006.02 1006.07 1006.11 1006.09 1006.01 1005.89 1005.78 1005.74 1005.86 1006.19 1006.74 1007.50 1008.43 1009.44
1007.47 1008.74 1009.87 1010.66 1010.99 1010.80 1010.17 1009.21 1008.12 1007.10 1006.31 1005.83 1005.68 1005.79 1006.05 1006.34 1006.53 1006.58 1006.47 1006.26 1006.03 1005.86 1005.80 1005.88 1006.08 1006.34 1006.59 1006.75 1006.80 1006.74 1006.58 1006.39 1006.22 1006.10 1006.06 1006.07 1006.11 1006.14 1006.13 1006.07 1006.00 1005.95 1006.00 1006.20 1006.58 1007.17 1007.94 1008.85 1009.81
1008.30 1009.54 1010.56 1011.17 1011.28 1010.89 1010.07 1008.97 1007.80 1006.73 1005.90 1005.40 1005.21 1005.26 1005.45 1005.66 1005.81 1005.85 1005.78 1005.66 1005.55 1005.51 1005.58 1005.77 1006.04 1006.33 1006.57 1006.72 1006.75 1006.67 1006.51 1006.33 1006.17 1006.07 1006.04 1006.05 1006.09 1006.13 1006.14 1006.13 1006.14 1006.20 1006.36 1006.66 1007.14 1007.77 1008.54 1009.41 1010.31
1009.00 1010.14 1010.98 1011.39 1011.31 1010.75 1009.83 1008.69 1007.52 1006.50 1005.72 1005.25 1005.05 1005.06 1005.19 1005.33 1005.43 1005.46 1005.42 1005.37 1005.36 1005.43 1005.60 1005.85 1006.14 1006.41 1006.61 1006.71 1006.69 1006.57 1006.40 1006.22 1006.07 1005.99 1005.96 1005.97 1006.01 1006.06 1006.11 1006.16 1006.27 1006.45 1006.74 1007.18 1007.75 1008.44 1009.22 1010.03 1010.85
1009.49 1010.45 1011.07 1011.26 1011.01 1010.35 1009.41 1008.33 1007.27 1006.37 1005.72 1005.33 1005.18 1005.18 1005.27 1005.36 1005.42 1005.44 1005.43 1005.44 1005.50 1005.65 1005.87 1006.13 1006.40 1006.61 1006.74 1006.74 1006.65 1006.48 1006.28 1006.10 1005.96 1005.88 1005.85 1005.86 1005.90 1005.95 1006.03 1006.15 1006.34 1006.65 1007.08 1007.65 1008.32 1009.08 1009.86 1010.64 1011.37
1009.72 1010.43 1010.80 1010.79 1010.39 1009.69 1008.80 1007.86 1006.99 1006.30 1005.84 1005.58 1005.51 1005.54 1005.61 1005.68 1005.71 1005.73 1005.75 1005.81 1005.94 1006.13 1006.37 1006.62 1006.83 1006.95 1006.96 1006.86 1006.68 1006.45 1006.21 1006.02 1005.88 1005.80 1005.77 1005.78 1005.80 1005.84 1005.93 1006.09 1006.37 1006.78 1007.33 1008.01 1008.79 1009.61 1010.42 1011.17 1011.83
1009.68 1010.13 1010.25 1010.04 1009.54 1008.84 1008.06 1007.31 1006.68 1006.24 1005.99 1005.90 1005.93 1006.01 1006.09 1006.16 1006.19 1006.23 1006.29 1006.40 1006.58 1006.80 1007.04 1007.24 1007.37 1007.38 1007.28 1007.07 1006.80 1006.52 1006.26 1006.05 1005.92 1005.84 1005.80 1005.78 1005.77 1005.79 1005.87 1006.04 1006.36 1006.84 1007.49 1008.27 1009.14 1010.03 1010.88 1011.62 1012.25
1009.46 1009.64 1009.51 1009.13 1008.56 1007.89 1007.25 1006.70 1006.32 1006.13 1006.10 1006.19 1006.33 1006.47 1006.58 1006.66 1006.71 1006.78 1006.89 1007.06 1007.28 1007.53 1007.76 1007.92 1007.96 1007.88 1007.67 1007.38 1007.04 1006.72 1006.44 1006.25 1006.12 1006.04 1005.99 1005.94 1005.89 1005.86 1005.90 1006.06 1006.39 1006.91 1007.62 1008.47 1009.42 1010.38 1011.27 1012.05 1012.68
1009.17 1009.09 1008.75 1008.22 1007.59 1006.97 1006.45 1006.10 1005.95 1005.98 1006.14 1006.37 1006.60 1006.80 1006.94 1007.04 1007.13 1007.24 1007.41 1007.64 1007.91 1008.18 1008.41 1008.54 1008.53 1008.38 1008.10 1007.75 1007.38 1007.05 1006.78 1006.60 1006.49 1006.42 1006.35 1006.27 1006.18 1006.10 1006.09 1006.22 1006.53 1007.06 1007.80 1008.70 1009.71 1010.73 1011.68 1012.51 1013.18
1008.91 1008.63 1008.10 1007.44 1006.77 1006.18 1005.77 1005.58 1005.59 1005.78 1006.08 1006.40 1006.70 1006.93 1007.10 1007.23 1007.36 1007.52 1007.75 1008.04 1008.36 1008.67 1008.91 1009.03 1009.00 1008.81 1008.52 1008.16 1007.80 1007.48 1007.25 1007.11 1007.02 1006.96 1006.89 1006.79 1006.66 1006.54 1006.49 1006.58 1006.87 1007.39 1008.13 1009.06 1010.10 1011.17 1012.18 1013.07 1013.80
1008.80 1008.34 1007.67 1006.92 1006.20 1005.64 1005.30 1005.19 1005.30 1005.58 1005.94 1006.30 1006.61 1006.86 1007.04 1007.19 1007.35 1007.57 1007.85 1008.20 1008.58 1008.94 1009.20 1009.34 1009.32 1009.16 1008.88 1008.56 1008.24 1007.98 1007.80 1007.70 1007.66 1007.62 1007.56 1007.46 1007.32 1007.19 1007.12 1007.19 1007.45 1007.96 1008.69 1009.62 1010.67 1011.77 1012.83 1013.76 1014.56
1008.88 1008.30 1007.53 1006.70 1005.96 1005.40 1005.08 1005.00 1005.14 1005.42 1005.77 1006.11 1006.41 1006.63 1006.81 1006.97 1007.16 1007.42 1007.76 1008.17 1008.60 1008.99 1009.30 1009.48 1009.51 1009.40 1009.19 1008.93 1008.69 1008.50 1008.39 1008.34 1008.34 1008.34 1008.31 1008.23 1008.12 1008.00 1007.95 1008.03 1008.30 1008.79 1009.51 1010.41 1011.45 1012.54 1013.61 1014.58 1015.42
1009.13 1008.47 1007.64 1006.78 1006.03 1005.46 1005.13 1005.04 1005.14 1005.37 1005.66 1005.93 1006.17 1006.35 1006.51 1006.68 1006.89 1007.19 1007.58 1008.02 1008.49 1008.93 1009.28 1009.52 1009.60 1009.57 1009.45 1009.28 1009.13 1009.02 1008.98 1008.99 1009.03 1009.07 1009.08 1009.05 1008.99 1008.94 1008.94 1009.07 1009.36 1009.86 1010.55 1011.41 1012.40 1013.45 1014.48 1015.45 1016.30
1009.48 1008.79 1007.95 1007.10 1006.36 1005.80 1005.45 1005.31 1005.34 1005.48 1005.66 1005.84 1005.99 1006.13 1006.26 1006.43 1006.67 1007.00 1007.41 1007.89 1008.39 1008.85 1009.24 1009.52 1009.68 1009.73 1009.70 1009.64 1009.58 1009.55 1009.56 1009.62 1009.69 1009.77 1009.83 1009.86 1009.89 1009.93 1010.03 1010.23 1010.57 1011.08 1011.74 1012.55 1013.45 1014.41 1015.37 1016.28 1017.12
1009.83 1009.16 1008.37 1007.58 1006.89 1006.35 1006.00 1005.81 1005.75 1005.77 1005.83 1005.89 1005.96 1006.03 1006.14 1006.31 1006.57 1006.93 1007.37 1007.86 1008.37 1008.85 1009.26 1009.58 1009.80 1009.93 1009.99 1010.02 1010.04 1010.08 1010.14 1010.23 1010.33 1010.44 1010.55 1010.65 1010.77 1010.92 1011.13 1011.43 1011.84 1012.36 1012.99 1013.71 1014.51 1015.34 1016.18 1017.01 1017.79
1010.07 1009.47 1008.79 1008.12 1007.53 1007.07 1006.72 1006.49 1006.34 1006.23 1006.16 1006.10 1006.07 1006.08 1006.17 1006.35 1006.64 1007.02 1007.48 1007.98 1008.49 1008.97 1009.39 1009.73 1010.00 1010.19 1010.33 1010.44 1010.54 1010.63 1010.73 1010.84 1010.96 1011.08 1011.23 1011.40 1011.61 1011.88 1012.20 1012.60 1013.07 1013.60 1014.19 1014.82 1015.48 1016.16 1016.86 1017.56 1018.26
1010.12 1009.65 1009.14 1008.65 1008.22 1007.86 1007.56 1007.29 1007.05 1006.81 1006.59 1006.40 1006.27 1006.24 1006.31 1006.50 1006.82 1007.23 1007.72 1008.23 1008.73 1009.20 1009.61 1009.96 1010.25 1010.50 1010.71 1010.89 1011.04 1011.18 1011.31 1011.44 1011.56 1011.71 1011.88 1012.11 1012.40 1012.76 1013.18 1013.66 1014.18 1014.72 1015.26 1015.79 1016.31 1016.83 1017.37 1017.93 1018.52
1009.92 1009.64 1009.37 1009.12 1008.89 1008.67 1008.42 1008.13 1007.79 1007.41 1007.04 1006.71 1006.48 1006.38 1006.43 1006.65 1007.00 1007.46 1007.97 1008.50 1009.00 1009.45 1009.85 1010.20 1010.51 1010.79 1011.05 1011.29 1011.51 1011.70 1011.87 1012.01 1012.14 1012.30 1012.50 1012.76 1013.11 1013.54 1014.04 1014.59 1015.14 1015.67 1016.16 1016.59 1016.98 1017.34 1017.71 1018.13 1018.62
1009.50 1009.45 1009.45 1009.48 1009.48 1009.41 1009.23 1008.91 1008.46 1007.93 1007.38 1006.90 1006.54 1006.38 1006.42 1006.66 1007.06 1007.57 1008.13 1008.68 1009.19 1009.63 1010.02 1010.37 1010.68 1010.99 1011.30 1011.60 1011.88 1012.13 1012.34 1012.51 1012.67 1012.84 1013.06 1013.35 1013.74 1014.21 1014.75 1015.33 1015.90 1016.42 1016.85 1017.20 1017.47 1017.70 1017.93 1018.22 1018.60
1008.92 1009.13 1009.43 1009.73 1009.97 1010.05 1009.91 1009.54 1008.96 1008.25 1007.51 1006.86 1006.37 1006.13 1006.15 1006.42 1006.88 1007.47 1008.08 1008.68 1009.20 1009.65 1010.04 1010.37 1010.70 1011.03 1011.38 1011.73 1012.08 1012.40 1012.68 1012.90 1013.11 1013.31 1013.55 1013.86 1014.26 1014.75 1015.31 1015.90 1016.46 1016.96 1017.35 1017.63 1017.81 1017.94 1018.06 1018.25 1018.54
1008.26 1008.74 1009.33 1009.90 1010.33 1010.53 1010.41 1009.96 1009.23 1008.33 1007.38 1006.54 1005.93 1005.61 1005.61 1005.92 1006.45 1007.11 1007.81 1008.46 1009.03 1009.49 1009.87 1010.20 1010.53 1010.87 1011.26 1011.67 1012.09 1012.48 1012.84 1013.15 1013.41 1013.66 1013.93 1014.26 1014.67 1015.16 1015.71 1016.29 1016.84 1017.31 1017.67 1017.91 1018.04 1018.10 1018.15 1018.26 1018.48
1007.66 1008.38 1009.21 1009.99 1010.58 1010.84 1010.70 1010.14 1009.25 1008.15 1007.00 1005.99 1005.25 1004.86 1004.86 1005.21 1005.82 1006.57 1007.36 1008.08 1008.70 1009.18 1009.57 1009.89 1010.20 1010.56 1010.96 1011.42 1011.91 1012.39 1012.83 1013.23 1013.57 1013.88 1014.19 1014.54 1014.95 1015.43 1015.97 1016.52 1017.04 1017.50 1017.84 1018.06 1018.17 1018.20 1018.22 1018.29 1018.45
1007.22 1008.12 1009.13 1010.05 1010.72 1010.99 1010.78 1010.11 1009.05 1007.77 1006.45 1005.29 1004.45 1004.02 1004.03 1004.43 1005.13 1005.98 1006.86 1007.66 1008.32 1008.83 1009.21 1009.52 1009.82 1010.16 1010.57 1011.06 1011.59 1012.15 1012.68 1013.16 1013.59 1013.97 1014.33 1014.70 1015.11 1015.57 1016.08 1016.60 1017.10 1017.54 1017.88 1018.10 1018.22 1018.26 1018.27 1018.32 1018.45
1007.02 1008.02 1009.12 1010.10 1010.77 1011.00 1010.71 1009.91 1008.71 1007.28 1005.84 1004.59 1003.70 1003.26 1003.30 1003.76 1004.54 1005.49 1006.45 1007.32 1008.03 1008.56 1008.93 1009.22 1009.48 1009.79 1010.19 1010.67 1011.24 1011.84 1012.43 1012.99 1013.49 1013.94 1014.34 1014.74 1015.15 1015.60 1016.08 1016.57 1017.05 1017.47 1017.81 1018.05 1018.20 1018.27 1018.31 1018.36 1018.46
1007.08 1008.11 1009.20 1010.14 1010.76 1010.90 1010.51 1009.61 1008.31 1006.80 1005.30 1004.02 1003.13 1002.72 1002.82 1003.35 1004.20 1005.23 1006.26 1007.18 1007.91 1008.45 1008.81 1009.06 1009.28 1009.55 1009.90 1010.36 1010.92 1011.54 1012.17 1012.78 1013.33 1013.83 1014.27 1014.69 1015.11 1015.53 1015.98 1016.45 1016.90 1017.32 1017.67 1017.94 1018.13 1018.24 1018.32 1018.39 1018.49
1007.38 1008.35 1009.35 1010.19 1010.69 1010.72 1010.23 1009.25 1007.92 1006.40 1004.92 1003.68 1002.85 1002.51 1002.67 1003.26 1004.17 1005.24 1006.31 1007.25 1008.00 1008.52 1008.86 1009.08 1009.25 1009.46 1009.77 1010.18 1010.71 1011.31 1011.94 1012.57 1013.15 1013.68 1014.15 1014.58 1014.99 1015.40 1015.83 1016.27 1016.70 1017.12 1017.48 1017.78 1018.01 1018.18 1018.30 1018.40 1018.51
1007.85 1008.69 1009.54 1010.21 1010.55 1010.46 1009.89 1008.89 1007.57 1006.12 1004.73 1003.59 1002.86 1002.61 1002.83 1003.47 1004.41 1005.49 1006.55 1007.49 1008.22 1008.73 1009.05 1009.23 1009.37 1009.53 1009.78 1010.14 1010.61 1011.17 1011.78 1012.40 1012.98 1013.51 1013.98 1014.42 1014.83 1015.23 1015.64 1016.06 1016.48 1016.89 1017.27 1017.59 1017.86 1018.08 1018.25 1018.39 1018.52
1008.37 1009.03 1009.68 1010.15 1010.33 1010.11 1009.49 1008.50 1007.26 1005.92 1004.68 1003.69 1003.07 1002.91 1003.18 1003.84 1004.76 1005.80 1006.82 1007.72 1008.43 1008.92 1009.22 1009.40 1009.52 1009.66 1009.87 1010.18 1010.61 1011.12 1011.68 1012.25 1012.81 1013.33 1013.80 1014.23 1014.64 1015.04 1015.44 1015.84 1016.26 1016.66 1017.05 1017.40 1017.71 1017.96 1018.18 1018.36 1018.52
Thickness
5828 5828 5826 5814 5791 5768 5766 5783 5801 5806 5809 5818 5823 5817 5807 5798 5788 5777 5801 5807 5803 5799 5797 5795 5793 5791 5789 5787 5786 5784 5783 5782 5780 5779 5777 5775 5774 5772 5771 5770 5769 5767 5766 5764 5763 5762 5760 5759 5758
5828 5827 5817 5799 5772 5751 5764 5791 5800 5809 5817 5823 5821 5817 5808 5800 5806 5801 5802 5805 5804 5800 5797 5795 5792 5790 5788 5786 5784 5783 5781 5780 5779 5777 5775 5773 5772 5770 5768 5767 5765 5764 5763 5762 5761 5759 5758 5757 5756
5827 5825 5802 5782 5767 5758 5772 5796 5805 5816 5826 5824 5815 5816 5808 5802 5807 5806 5808 5806 5803 5799 5797 5794 5792 5790 5787 5785 5783 5782 5780 5779 5777 5775 5773 5771 5770 5768 5766 5764 5763 5762 5761 5759 5758 5757 5756 5755 5754
5821 5808 5794 5773 5768 5780 5792 5803 5812 5813 5818 5822 5814 5805 5809 5818 5816 5814 5811 5807 5802 5798 5796 5794 5792 5789 5786 5784 5782 5780 5778 5776 5775 5773 5771 5769 5768 5766 5764 5762 5761 5760 5759 5757 5756 5755 5754 5754 5752
5814 5794 5774 5762 5773 5792 5808 5816 5819 5813 5812 5815 5812 5798 5799 5816 5821 5816 5811 5807 5802 5797 5795 5793 5791 5788 5785 5783 5780 5778 5776 5775 5773 5771 5769 5767 5765 5764 5762 5761 5759 5758 5757 5756 5755 5754 5753 5752 5751
5795 5782 5760 5754 5774 5798 5813 5820 5818 5812 5809 5811 5807 5797 5796 5813 5814 5812 5810 5806 5802 5798 5795 5792 5789 5786 5784 5781 5779 5777 5775 5773 5770 5768 5767 5765 5763 5762 5760 5759 5757 5756 5755 5754 5753 5752 5751 5750 5749
5788 5773 5763 5769 5776 5791 5811 5821 5817 5811 5808 5810 5813 5795 5796 5805 5812 5812 5809 5805 5800 5797 5793 5790 5787 5785 5783 5780 5778 5775 5773 5771 5768 5766 5764 5763 5761 5759 5758 5757 5755 5754 5753 5752 5752 5751 5749 5749 5748
5800 5779 5771 5773 5779 5788 5812 5820 5822 5817 5813 5823 5819 5797 5793 5805 5811 5809 5804 5801 5797 5794 5791 5789 5786 5784 5781 5779 5776 5773 5771 5769 5767 5764 5762 5760 5758 5757 5756 5755 5754 5752 5751 5751 5750 5749 5748 5747 5746
5806 5772 5762 5775 5784 5793 5813 5812 5819 5828 5819 5819 5820 5814 5814 5816 5810 5803 5796 5792 5790 5789 5788 5787 5785 5782 5779 5777 5774 5771 5769 5767 5764 5762 5760 5758 5756 5755 5754 5753 5751 5750 5749 5748 5748 5747 5746 5745 5744
5791 5766 5777 5796 5802 5803 5811 5812 5813 5811 5805 5806 5809 5815 5818 5814 5806 5798 5791 5786 5785 5784 5784 5785 5783 5781 5778 5775 5772 5769 5767 5764 5762 5760 5758 5756 5754 5753 5752 5751 5749 5748 5747 5746 5745 5745 5744 5743 5742
5792 5782 5795 5806 5814 5814 5812 5813 5817 5806 5795 5803 5804 5807 5811 5808 5804 5798 5793 5789 5787 5786 5784 5783 5782 5780 5776 5773 5770 5767 5765 5762 5760 5758 5756 5754 5752 5751 5750 5748 5747 5746 5745 5744 5743 5742 5741 5741 5740
5793 5798 5804 5809 5818 5815 5812 5812 5810 5808 5808 5817 5818 5816 5810 5804 5800 5797 5792 5790 5788 5785 5784 5782 5781 5778 5775 5772 5769 5766 5763 5760 5758 5756 5754 5751 5749 5748 5747 5746 5745 5743 5743 5742 5741 5740 5739 5739 5738
5790 5796 5806 5813 5816 5817 5815 5810 5807 5808 5818 5820 5818 5813 5806 5802 5799 5797 5796 5792 5788 5784 5783 5783 5781 5777 5774 5770 5767 5764 5761 5758 5756 5754 5752 5750 5747 5746 5745 5743 5742 5741 5740 5740 5739 5738 5737 5736 5736
5792 5797 5802 5807 5811 5813 5808 5806 5802 5804 5814 5812 5808 5804 5803 5800 5798 5793 5790 5787 5785 5783 5781 5781 5779 5776 5773 5769 5765 5763 5760 5756 5754 5751 5749 5747 5745 5743 5742 5741 5740 5739 5738 5738 5737 5736 5735 5734 5734
5796 5789 5791 5799 5804 5807 5804 5788 5793 5804 5807 5802 5801 5800 5799 5798 5796 5792 5790 5787 5784 5782 5781 5778 5776 5773 5770 5767 5763 5760 5757 5754 5751 5749 5747 5745 5744 5742 5740 5738 5737 5737 5736 5735 5734 5733 5732 5731 5731
5783 5774 5766 5787 5799 5802 5789 5767 5791 5802 5799 5793 5795 5796 5794 5793 5792 5792 5790 5787 5784 5781 5778 5776 5775 5770 5767 5764 5761 5758 5755 5752 5750 5747 5745 5744 5742 5740 5738 5736 5735 5734 5734 5732 5731 5730 5728 5727 5727
5758 5751 5757 5774 5795 5794 5781 5768 5787 5797 5794 5788 5788 5789 5788 5787 5788 5789 5789 5786 5782 5779 5776 5773 5770 5767 5764 5760 5758 5755 5753 5750 5747 5745 5743 5741 5740 5738 5736 5734 5733 5732 5731 5729 5729 5726 5725 5723 5723
5742 5747 5754 5761 5782 5785 5773 5771 5783 5791 5791 5786 5784 5783 5782 5781 5783 5786 5785 5784 5780 5778 5775 5771 5767 5764 5760 5757 5753 5751 5748 5746 5744 5741 5740 5738 5737 5735 5733 5731 5730 5729 5727 5725 5724 5722 5721 5720 5720
5756 5752 5750 5764 5783 5775 5768 5767 5774 5783 5782 5779 5778 5776 5776 5776 5780 5781 5778 5778 5775 5772 5769 5765 5762 5760 5757 5752 5748 5744 5742 5741 5739 5738 5737 5735 5734 5732 5731 5729 5727 5725 5723 5722 5721 5719 5716 5715 5716
5755 5748 5750 5762 5778 5771 5762 5762 5770 5776 5776 5777 5774 5772 5772 5770 5771 5771 5771 5770 5768 5765 5763 5760 5758 5757 5754 5751 5748 5745 5741 5738 5736 5734 5733 5732 5731 5729 5728 5725 5723 5722 5720 5718 5717 5715 5712 5711 5712
5752 5747 5750 5753 5765 5766 5758 5747 5754 5764 5770 5771 5772 5772 5770 5768 5765 5765 5764 5763 5761 5759 5758 5758 5754 5753 5751 5748 5744 5740 5736 5733 5730 5729 5728 5728 5728 5726 5724 5722 5720 5718 5716 5714 5713 5712 5709 5706 5707
5743 5763 5763 5759 5745 5733 5743 5716 5736 5747 5751 5756 5758 5760 5761 5762 5760 5758 5758 5756 5755 5755 5755 5754 5751 5749 5747 5744 5740 5735 5731 5727 5726 5726 5725 5724 5723 5722 5720 5718 5717 5715 5713 5711 5710 5708 5707 5705 5702
5755 5770 5764 5758 5742 5729 5731 5714 5721 5736 5735 5742 5749 5753 5755 5757 5755 5753 5752 5750 5750 5750 5749 5747 5745 5743 5742 5740 5737 5733 5728 5726 5724 5723 5721 5719 5719 5718 5716 5715 5713 5711 5709 5708 5707 5705 5705 5704 5701
5769 5760 5750 5738 5722 5705 5719 5711 5708 5722 5732 5738 5743 5748 5750 5751 5750 5748 5747 5745 5743 5742 5741 5740 5738 5738 5738 5736 5733 5730 5726 5723 5720 5718 5716 5715 5714 5713 5712 5711 5709 5707 5705 5704 5704 5703 5702 5701 5700
5754 5725 5699 5696 5688 5695 5718 5711 5710 5731 5741 5742 5740 5742 5745 5744 5742 5741 5740 5737 5736 5734 5734 5733 5732 5731 5731 5730 5728 5726 5723 5721 5718 5716 5713 5711 5709 5708 5708 5707 5705 5703 5702 5702 5701 5700 5699 5699 5697
5739 5723 5692 5681 5681 5692 5709 5704 5716 5736 5741 5742 5741 5740 5740 5739 5737 5736 5735 5733 5732 5730 5729 5727 5725 5725 5725 5724 5722 5721 5720 5717 5714 5713 5711 5708 5706 5705 5705 5704 5702 5701 5699 5698 5697 5696 5696 5696 5695
5732 5722 5721 5698 5694 5685 5691 5703 5717 5730 5732 5733 5733 5733 5732 5733 5734 5733 5732 5729 5728 5726 5724 5723 5721 5719 5719 5718 5717 5715 5715 5713 5710 5709 5707 5705 5703 5703 5701 5700 5699 5698 5696 5695 5694 5692 5692 5692 5691
5739 5727 5705 5690 5677 5672 5684 5690 5695 5710 5718 5724 5724 5724 5726 5727 5727 5728 5727 5726 5724 5721 5719 5719 5716 5714 5714 5712 5711 5711 5709 5708 5706 5703 5701 5700 5699 5698 5697 5696 5695 5694 5693 5692 5690 5689 5688 5688 5687
5722 5715 5702 5687 5683 5671 5667 5681 5714 5713 5717 5717 5717 5719 5719 5720 5720 5720 5720 5719 5718 5716 5714 5712 5710 5709 5708 5707 5705 5704 5703 5702 5700 5698 5697 5696 5695 5694 5692 5691 5690 5689 5688 5688 5686 5685 5685 5684 5683
5719 5709 5696 5679 5676 5675 5668 5679 5717 5715 5715 5714 5714 5716 5716 5715 5715 5714 5713 5712 5710 5708 5706 5706 5705 5704 5703 5701 5700 5698 5697 5696 5694 5693 5692 5692 5690 5689 5688 5687 5686 5685 5684 5683 5682 5681 5680 5679 5679